STARLINK-1116 (44947 NORAD) Tracking and Keplerian Element Data

This shows tracking and keplerian element data for the satellite.

Feedback or suggestion? Click here.




ElementValue
Catalog44947
NameSTARLINK-1116
Epoch Orbit1270
Epoch Day88.25001157
Epoch Year2020
RAAN359.2567
Inclination52.9952
Eccentricity0.0001332
Argument of Perigee80.9337
Mean Anonmoly251.3912
Mean Motion15.15216573
Decay Rate-0.0008877
L11 44947U 20001AK 20088.25001157 -.00088770 00000-0 -47108-2 0 9994
L22 44947 52.9952 359.2567 0001332 80.9337 251.3912 15.15216573 12707

Live tracking and technical data element details for STARLINK-1116 (NORAD 44947). STARLINK-1116 can be tracked NOW for your location showing map with azimuth and elevation plus other details from your city location.

Track the satellite on the map from your city or location and see movement details for azimuth, elevation, latitude, longitude, range, height, and movement on the map or in text.







IsCatalogInMostPopularTable: catalog: 44947, numindb: 18
Update: records affected: 1



GetName: 44947 STARLINK-1116

Hit Count: updated at: Sat, 28 Mar 2020 20:10:30 GMT